Flag Weather past 2 weeks in Chongqing, Chongqing Municipality, China

Now
55 °F

Drizzle. Fog.


Feels Like: 55 °F
Forecast: 51 / 64 °F
Wind: 1 mph from North

Location: Chongqing Airport

Current Time: Nov 24, 2014 at 3:07:23 PM

Latest Report: Nov 24, 2014 at 2:00 PM


Visibility: 2 mi

Pressure: 30.04 "Hg

Humidity: 94%

Dew point: 54 °F

Location of ChongqingLocation

Historic Weather in Chongqing — Graph

°F

Chongqing temperature yesterday

Maximum temperature yesterday: 55 °F (at 12:00 AM)
Minimum temperature yesterday: 54 °F (at 3:00 AM)
Average temperature yesterday: 55 °F

Past Weeks' High & Low Weather Summary

 TemperatureHumidityPressure
High63 °F (Nov 19, 3:00 PM)94% (Nov 11, 6:00 AM)30.39 "Hg (Nov 11, 6:00 AM)
Low48 °F (Nov 19, 6:00 AM)52% (Nov 19, 3:00 PM)29.98 "Hg (Nov 14, 4:00 PM)
Average55 °F84%30.19 "Hg
* Reported Nov 9 1:00 PM — Nov 24 1:00 PM, Chongqing, Weather by CustomWeather, © 2014

Note: Actual official high and low records may vary slightly from our data, if they occured in-between our weather recording intervals... More about our weather records

Advertising

Chongqing weather history for previous 24 hours

 ConditionsComfort  
Time TempWeatherWind HumidityBarometerVisibility
1:00 PM
Nov 24
55 °FLight rain. Fog.3 mph88%30.07 "Hg1 mi
12:00 PM54 °FLight rain. Fog.3 mph94%30.09 "Hg1 mi
11:00 AM54 °FLight rain. Fog.1 mph94%30.12 "Hg1 mi
10:00 AM54 °FLight rain. Fog.1 mph94%30.12 "Hg1 mi
9:00 AM54 °FLight rain. Fog.1 mph94%30.09 "Hg1 mi
8:00 AM54 °FLight rain. Fog.1 mph94%30.09 "Hg1 mi
7:00 AM54 °FLight rain. Fog.1 mph94%30.07 "Hg1 mi
6:00 AM54 °FLight rain. Fog.1 mph94%30.07 "Hg1 mi
5:00 AM54 °FLight rain. Fog.1 mph94%30.07 "Hg3 mi
4:00 AM54 °FLight rain. Fog.1 mph94%30.07 "Hg2 mi
3:00 AM54 °FLight rain. Fog.3 mph94%30.07 "Hg2 mi
2:00 AM55 °FLight rain. Fog.1 mph88%30.07 "Hg2 mi
1:00 AM55 °FFog.3 mph88%30.09 "Hg2 mi
12:00 AM55 °FLight rain. Fog.1 mph94%30.09 "Hg2 mi
11:00 PM
Nov 23
55 °FDrizzle. Fog.3 mph94%30.07 "Hg1 mi
10:00 PM55 °FDrizzle. Fog.1 mph94%30.07 "Hg1 mi
9:00 PM55 °FFog.1 mph94%30.07 "Hg1 mi
8:00 PM55 °FFog.1 mph94%30.04 "Hg3 mi
7:00 PM55 °FLight rain. Fog.1 mph94%30.04 "Hg2 mi
6:00 PM55 °FFog.1 mph94%30.01 "Hg2 mi
5:00 PM55 °FLight rain. Fog.1 mph94%29.98 "Hg2 mi
4:00 PM55 °FLight rain. Fog.3 mph94%29.98 "Hg2 mi
3:00 PM55 °FLight rain. Fog.3 mph94%29.98 "Hg1 mi
Weather by CustomWeather, © 2014

See weather overviewHow to use our weather pages